DW2513 Weather Reports


Display with metric or nautical units.
time (UTC)temp
F
wind
direction
speed
MPH
gust
MPH
rain 1hr
in
rain 24hr
in
rain mn
in
humidity
%
barometer
mb
20260509072805 35 83 0.0 1.0 0.00 0.00 0.00 74 1009.7
20260509071804 35 84 0.0 0.0 0.00 0.00 0.00 74 1009.7
20260509071305 35 84 0.0 0.0 0.00 0.00 0.00 74 1009.7
20260509070305 36 84 0.0 0.0 0.00 0.00 0.00 73 1009.8
20260509065306 36 84 0.0 0.0 0.00 0.00 0.00 73 1009.8
20260509064304 36 84 0.0 0.0 0.00 0.00 0.00 73 1009.9
20260509063304 36 84 0.0 0.0 0.00 0.00 0.00 72 1009.9
20260509062804 37 84 0.0 0.0 0.00 0.00 0.00 72 1009.9
20260509061805 37 84 0.0 0.0 0.00 0.00 0.00 71 1009.9
20260509061304 37 84 0.0 0.0 0.00 0.00 0.00 71 1009.9
20260509060804 37 84 0.0 0.0 0.00 0.00 0.00 71 1009.9
20260509055306 38 84 0.0 0.0 0.00 0.00 0.00 70 1009.9
20260509053805 38 84 0.0 0.0 0.00 0.00 0.00 69 1009.5
20260509053305 38 84 0.0 0.0 0.00 0.00 0.00 69 1009.5
20260509052805 38 84 0.0 0.0 0.00 0.00 0.00 69 1009.5
20260509052307 39 84 0.0 0.0 0.00 0.00 0.00 68 1009.5
20260509051805 39 84 0.0 0.0 0.00 0.00 0.00 68 1009.4
20260509050804 39 84 0.0 0.0 0.00 0.00 0.00 67 1009.4
20260509050305 39 84 0.0 0.0 0.00 0.00 0.00 67 1009.4
20260509045804 39 84 0.0 0.0 0.00 0.00 0.00 67 1009.4
20260509044804 40 84 0.0 0.0 0.00 0.00 0.00 66 1009.4
20260509043804 40 84 0.0 0.0 0.00 0.00 0.00 66 1009.4
20260509043304 40 84 0.0 0.0 0.00 0.00 0.00 66 1009.4
20260509042307 40 84 0.0 0.0 0.00 0.00 0.00 66 1009.3
20260509041304 41 84 0.0 0.0 0.00 0.00 0.00 65 1009.3
20260509040304 41 84 0.0 0.0 0.00 0.00 0.00 64 1009.3
20260509035804 41 84 0.0 0.0 0.00 0.00 0.00 64 1009.0
20260509035306 42 84 0.0 0.0 0.00 0.00 0.00 63 1009.0
20260509033305 42 84 0.0 0.0 0.00 0.00 0.00 61 1008.8
20260509032804 43 84 0.0 0.0 0.00 0.00 0.00 61 1008.8
20260509032306 43 84 0.0 0.0 0.00 0.00 0.00 60 1008.8
20260509031305 43 84 0.0 0.0 0.00 0.00 0.00 59 1008.8
20260509030805 43 84 0.0 0.0 0.00 0.00 0.00 59 1008.8
20260509025805 44 84 0.0 0.0 0.00 0.00 0.00 57 1008.3
20260509025306 44 84 0.0 0.0 0.00 0.00 0.00 57 1008.3
20260509024804 44 84 0.0 0.0 0.00 0.00 0.00 56 1008.3
20260509023804 45 84 0.0 0.0 0.00 0.00 0.00 55 1008.3
20260509022805 45 84 0.0 0.0 0.00 0.00 0.00 54 1008.3
20260509021305 45 84 0.0 0.0 0.00 0.00 0.00 53 1008.3
20260509020804 46 84 0.0 0.0 0.00 0.00 0.00 53 1008.2
20260509020304 46 84 0.0 0.0 0.00 0.00 0.00 53 1008.2
20260509015306 46 84 0.0 0.0 0.00 0.00 0.00 51 1008.1
20260509014804 46 84 0.0 0.0 0.00 0.00 0.00 51 1006.8
20260509012804 46 84 0.0 0.0 0.00 0.00 0.00 51 1006.8
20260509004804 48 84 0.0 0.0 0.00 0.00 0.00 49 1006.8
20260509003804 49 84 0.0 0.0 0.00 0.00 0.00 46 1006.8
20260509002306 49 84 0.0 0.0 0.00 0.00 0.00 46 1005.8
20260509001304 49 84 0.0 0.0 0.00 0.00 0.00 43 1005.8
20260508235306 50 169 0.0 0.0 0.00 0.00 0.00 42 1005.8
20260508232804 51 109 0.0 0.0 0.00 0.00 0.00 42 1005.8
20260508232307 51 109 0.0 2.0 0.00 0.00 0.00 42 1005.8
20260508231804 51 232 0.0 2.0 0.00 0.00 0.00 42 1005.8
20260508231304 51 232 0.0 0.0 0.00 0.00 0.00 41 1005.8
20260508230804 51 232 0.0 6.0 0.00 0.00 0.00 41 1005.8
20260508225307 51 166 0.0 3.0 0.00 0.00 0.00 41 1005.8
20260508224804 52 16 1.0 3.0 0.00 0.00 0.00 41 1005.8
20260508224304 52 86 1.0 3.0 0.00 0.00 0.00 41 1005.8
20260508223304 53 355 1.0 9.0 0.00 0.00 0.00 38 1005.5
20260508222804 53 91 0.0 3.0 0.00 0.00 0.00 37 1005.5
20260508221305 53 208 0.0 0.0 0.00 0.00 0.00 35 1005.5
20260508220305 53 226 0.0 5.0 0.00 0.00 0.00 35 1005.5
20260508214804 55 152 0.0 2.0 0.00 0.00 0.00 27 1005.2
20260508214304 55 200 0.0 1.0 0.00 0.00 0.00 26 1005.2
20260508213305 55 256 0.0 3.0 0.00 0.00 0.00 26 1005.2
20260508212804 55 191 1.0 6.0 0.00 0.00 0.00 25 1005.2
20260508210804 55 290 0.0 1.0 0.00 0.00 0.00 26 1005.2
20260508210304 55 128 1.0 3.0 0.00 0.00 0.00 26 1005.1
20260508205804 55 135 0.0 3.0 0.00 0.00 0.00 26 1005.1
20260508203804 55 250 0.0 3.0 0.00 0.00 0.00 26 1004.8
20260508202804 55 177 0.0 3.0 0.00 0.00 0.00 26 1004.8
20260508202307 55 18 1.0 3.0 0.00 0.00 0.00 26 1004.8
20260508201804 55 127 0.0 1.0 0.00 0.00 0.00 26 1004.8
20260508200804 55 198 0.0 3.0 0.00 0.00 0.00 25 1004.8
20260508194304 55 98 0.0 1.0 0.00 0.00 0.00 27 1004.7
20260508193804 55 98 0.0 0.0 0.00 0.00 0.00 26 1004.7
20260508193304 55 70 1.0 5.0 0.00 0.00 0.00 25 1004.7
20260508191304 55 277 0.0 6.0 0.00 0.00 0.00 25 1004.8
20260508185805 55 209 2.0 12.0 0.00 0.00 0.00 26 1005.0
20260508185306 55 169 2.0 5.0 0.00 0.00 0.00 26 1005.0
20260508184305 55 115 1.0 7.0 0.00 0.00 0.00 25 1005.0
20260508183305 55 141 2.0 3.0 0.00 0.00 0.00 26 1005.1
20260508181804 54 48 0.0 0.0 0.00 0.00 0.00 26 1005.2
20260508181304 54 40 0.0 12.0 0.00 0.00 0.00 26 1005.2
20260508180804 54 87 1.0 3.0 0.00 0.00 0.00 26 1005.2
20260508175804 55 27 0.0 13.0 0.00 0.00 0.00 25 1005.2
20260508175306 55 176 1.0 7.0 0.00 0.00 0.00 26 1005.2
20260508174304 54 168 1.0 5.0 0.00 0.00 0.00 25 1005.2
20260508173805 55 62 2.0 6.0 0.00 0.00 0.00 24 1005.2
20260508172307 55 337 3.0 10.0 0.00 0.00 0.00 26 1005.6
20260508171804 54 84 1.0 5.0 0.00 0.00 0.00 26 1005.6
20260508170305 53 55 2.0 5.0 0.00 0.00 0.00 26 1005.6
20260508165306 53 209 0.0 3.0 0.00 0.00 0.00 26 1005.6
20260508164805 53 123 0.0 2.0 0.00 0.00 0.00 27 1005.6
20260508161804 52 37 1.0 6.0 0.00 0.00 0.00 27 1005.6
20260508161304 52 136 0.0 3.0 0.00 0.00 0.00 26 1005.6
20260508160304 53 105 0.0 5.0 0.00 0.00 0.00 26 1005.6
20260508155804 53 252 1.0 7.0 0.00 0.00 0.00 25 1005.2
20260508155306 54 128 0.0 2.0 0.00 0.00 0.00 26 1005.2
20260508154805 53 103 1.0 3.0 0.00 0.00 0.00 26 1005.2
20260508154304 54 85 1.0 8.0 0.00 0.00 0.00 25 1005.2
20260508152804 54 150 2.0 9.0 0.00 0.00 0.00 25 1005.2
20260508151805 54 155 2.0 6.0 0.00 0.00 0.00 25 1005.4
20260508150804 55 93 2.0 6.0 0.00 0.00 0.00 23 1005.4
20260508150304 55 155 2.0 10.0 0.00 0.00 0.00 24 1005.4
20260508145804 54 186 2.0 9.0 0.00 0.00 0.00 24 1005.4
20260508145306 55 195 3.0 10.0 0.00 0.00 0.00 24 1005.4
20260508143305 54 131 3.0 10.0 0.00 0.00 0.00 25 1005.6
20260508142804 53 156 1.0 10.0 0.00 0.00 0.00 25 1005.6
20260508142306 53 148 2.0 6.0 0.00 0.00 0.00 26 1005.6
20260508135306 53 160 3.0 12.0 0.00 0.00 0.00 24 1005.7
20260508134305 53 103 1.0 7.0 0.00 0.00 0.00 26 1005.9
20260508132306 52 128 3.0 6.0 0.00 0.00 0.00 27 1005.9
20260508131804 53 126 2.0 5.0 0.00 0.00 0.00 28 1005.9
20260508131305 52 316 0.0 2.0 0.00 0.00 0.00 30 1005.9
20260508130304 52 107 0.0 0.0 0.00 0.00 0.00 31 1005.8
20260508125804 52 153 0.0 3.0 0.00 0.00 0.00 31 1005.8
20260508124805 50 141 2.0 7.0 0.00 0.00 0.00 34 1006.1
20260508123805 48 221 1.0 5.0 0.00 0.00 0.00 40 1006.1
20260508122805 47 142 0.0 0.0 0.00 0.00 0.00 47 1006.1
20260508121804 46 208 0.0 3.0 0.00 0.00 0.00 51 1006.1
20260508120804 44 263 0.0 0.0 0.00 0.00 0.00 56 1006.1
20260508115306 41 267 0.0 0.0 0.00 0.00 0.00 64 1006.1
20260508114304 39 267 0.0 0.0 0.00 0.00 0.00 69 1006.1
20260508113805 39 267 0.0 0.0 0.00 0.00 0.00 70 1006.1
20260508112804 38 267 0.0 0.0 0.00 0.00 0.00 71 1005.8
20260508112307 37 267 0.0 0.0 0.00 0.00 0.00 71 1005.8
20260508111305 37 267 0.0 0.0 0.00 0.00 0.00 74 1005.8
20260508110804 37 267 0.0 0.0 0.00 0.00 0.00 74 1005.8
20260508105804 36 197 0.0 0.0 0.00 0.00 0.00 75 1005.8
20260508105306 36 197 0.0 0.0 0.00 0.00 0.00 76 1005.8
20260508103304 34 156 0.0 0.0 0.00 0.00 0.00 79 1005.4
20260508101804 33 156 0.0 0.0 0.00 0.00 0.00 78 1005.4
20260508101305 33 156 0.0 0.0 0.00 0.00 0.00 78 1005.4
20260508100804 33 156 0.0 0.0 0.00 0.00 0.00 78 1005.4
20260508100304 32 156 0.0 0.0 0.00 0.00 0.00 78 1005.1
20260508095306 32 156 0.0 0.0 0.00 0.00 0.00 78 1005.1
20260508094304 32 156 0.0 0.0 0.00 0.00 0.00 78 1005.1
20260508093805 32 156 0.0 0.0 0.00 0.00 0.00 77 1005.1
20260508092804 32 156 0.0 0.0 0.00 0.00 0.00 77 1005.1
20260508092312 32 156 0.0 0.0 0.00 0.00 0.00 77 1005.1
20260508090304 32 156 0.0 0.0 0.00 0.00 0.00 76 1005.1
20260508085805 32 156 0.0 0.0 0.00 0.00 0.00 76 1005.0
20260508084804 33 156 0.0 0.0 0.00 0.00 0.00 75 1005.0
20260508084305 33 156 0.0 0.0 0.00 0.00 0.00 75 1005.0
20260508080804 34 156 0.0 0.0 0.00 0.00 0.00 74 1004.7
20260508075804 34 156 0.0 0.0 0.00 0.00 0.00 74 1004.7
20260508074304 34 156 0.0 0.0 0.00 0.00 0.00 73 1004.7